Weather in Kerki

Turkmenistan     37°49′57″N   65°12′34″E
temp.,
°C
wind,
m/s
gust,
m/s
humid.,
%
clouds,
%
prec.,
mm/h
press.,
hPa
HPBL,
m
12 august, fri
fri1223:00+28nnw713210 0.0 1006266
02:00+25nnw57260 0.0 100592
05:00+23nnw45260 0.0 100653
08:00+26nnw55240 0.0 1007249
11:00+33nnw44160 0.0 1006897
14:00+38nnw43100 0.0 10031868
17:00+39nnw5590 0.0 10022816
20:00+33nnw611120 0.0 1002138
13 august, sat
sat1323:00+30n611170 0.0 1002161
02:00+27n611210 0.0 1003158
05:00+24nnw69270 0.0 1004127
08:00+27nnw68240 0.0 1005345
11:00+34nw55160 0.0 10041153
14:00+39nw66110 0.0 10022240
17:00+40nw5680 0.0 10002619
20:00+32wnw34130 0.0 100033
14 august, sun
sun1423:00+29nw34170 0.0 99924
02:00+27ne22190 0.0 99912
05:00+25w12230 0.0 100012
08:00+29se01190 0.0 1002161
11:00+35n12130 0.0 1002872
14:00+39n43100 0.0 10001900
17:00+40n3490 0.0 9992751
20:00+34wnw44130 0.0 100025
15 august, mon
mon1523:00+30nnw45160 0.0 100036
02:00+28nw56200 0.0 100054
05:00+26nw56190 0.0 100162
08:00+30nnw69190 0.0 1003257
11:00+38nw66110 0.0 10031656
14:00+40wnw6590 0.0 10012749
17:00+40nw5590 0.0 10002693
20:00+34wnw44120 0.0 100122
16 august, tue
tue1623:00+30nnw44160 0.0 100234
02:00+28nw45200 0.0 100242
05:00+26nw56240 0.0 100356
08:00+30nnw57220 0.0 1004247
11:00+38nw78130 0.0 10041617
14:00+41nw77100 0.0 10023289
17:00+41nw8790 0.0 10003523
20:00+35nnw713140 0.0 1002204